Tacoma Narrows, WA
on Sunday, November 4, 2012

Sunday
Previous Day Next Day
Daily Summary
 ActualAverageRecord
Temperature
Mean Temperature °F °F  
Max Temperature 64°F 51°F 64°F (2012)
Min Temperature 55°F 41°F 30°F (2003)
Degree Days
Heating Degree Days 6    
Growing Degree Days9 (Base °F )  
Moisture
Dew Point 55°F   
Average Humidity 91    
Maximum Humidity 96    
Minimum Humidity 75    
Precipitation
Precipitation 0.28 in in in ()
Wind
Wind Speed 2 mph   
Max Wind Speed 15 mph   
Max Gust Speed mph   
Visibility 5 miles   
Events Rain   
Averages and records for this station are not official NWS values.
Key: T is trace of precipitation, MM is missing value
Source: NWS Daily Summary
Seasonal Weather Averages
Time(PST)TemperatureDew PointHumidity Pressure Visibility Wind DirectionWind SpeedGust SpeedPrecipitationEvents Conditions
12:18 AM 55.4°F 51.8°F 88% 30.19 in - Calm Calm - N/A   Overcast
12:50 AM 55.4°F 51.8°F 88% 30.18 in - Calm Calm - N/A   Overcast
12:53 AM 55.0°F 52.0°F 89% 30.18 in - Calm Calm - N/A   Overcast
1:41 AM 55.4°F 53.6°F 94% 30.18 in 3.0 miles Calm Calm - 0.00 in Rain Light Rain
1:44 AM 55.4°F 53.6°F 94% 30.18 in 2.5 miles Calm Calm - 0.01 in Rain Light Rain
1:53 AM 55.0°F 53.1°F 93% 30.19 in 2.5 miles Calm Calm - 0.01 in Rain Light Rain
1:58 AM 55.4°F 53.6°F 94% 30.19 in 4.0 miles Calm Calm - 0.00 in Rain Light Rain
1:14 AM 55.4°F 53.6°F 94% 30.18 in 6.0 miles Calm Calm - 0.00 in   Overcast
1:53 AM 55.0°F 53.1°F 93% 30.19 in 3.0 miles Calm Calm - 0.01 in Rain Light Rain
2:01 AM 55.4°F 53.6°F 94% 30.18 in 2.0 miles Calm Calm - 0.01 in Rain Light Rain
2:13 AM 55.4°F 53.6°F 94% 30.19 in 4.0 miles Calm Calm - 0.01 in   Overcast
2:32 AM 55.4°F 53.6°F 94% 30.18 in 9.0 miles Calm Calm - 0.01 in   Overcast
2:46 AM 55.4°F 53.6°F 94% 30.18 in 8.0 miles Calm Calm - 0.01 in   Overcast
2:53 AM 55.0°F 53.1°F 93% 30.19 in 7.0 miles Calm Calm - 0.01 in   Overcast
3:05 AM 55.4°F 53.6°F 94% 30.20 in 2.5 miles Calm Calm - N/A   Overcast
3:11 AM 55.4°F 53.6°F 94% 30.19 in 1.8 miles Calm Calm - 0.00 in Rain Light Rain
3:39 AM 55.4°F 53.6°F 94% 30.19 in 1.5 miles Calm Calm - 0.02 in Rain Light Rain
3:53 AM 55.0°F 53.1°F 93% 30.19 in 1.2 miles Calm Calm - 0.02 in Rain Light Rain
4:06 AM 55.4°F 53.6°F 94% 30.18 in 1.8 miles Calm Calm - 0.00 in Rain Light Rain
4:14 AM 55.4°F 53.6°F 94% 30.18 in 1.5 miles Calm Calm - 0.01 in Rain Light Rain
4:26 AM 55.4°F 53.6°F 94% 30.19 in 2.0 miles Variable 3.5 mph - 0.01 in   Overcast
4:46 AM 55.4°F 53.6°F 94% 30.20 in 3.0 miles Calm Calm - 0.01 in   Overcast
4:53 AM 55.0°F 53.1°F 93% 30.20 in 3.0 miles Calm Calm - 0.01 in   Overcast
5:04 AM 55.4°F 53.6°F 94% 30.20 in 3.0 miles Calm Calm - N/A   Overcast
5:15 AM 55.4°F 53.6°F 94% 30.21 in 2.5 miles Calm Calm - 0.01 in   Overcast
5:31 AM 55.4°F 53.6°F 94% 30.21 in 3.0 miles SE 4.6 mph - 0.01 in   Overcast
5:39 AM 55.4°F 53.6°F 94% 30.20 in 2.0 miles Variable 3.5 mph - 0.01 in   Overcast
5:53 AM 55.0°F 53.1°F 93% 30.20 in 2.5 miles ESE 4.6 mph - 0.01 in   Overcast
6:02 AM 55.4°F 53.6°F 94% 30.20 in 3.0 miles ESE 3.5 mph - N/A   Overcast
6:13 AM 55.4°F 53.6°F 94% 30.20 in 4.0 miles SE 3.5 mph - N/A   Overcast
6:53 AM 55.9°F 53.1°F 90% 30.19 in 10.0 miles Calm Calm - N/A   Overcast
7:53 AM 55.9°F 54.0°F 93% 30.20 in 10.0 miles Calm Calm - N/A   Overcast
8:53 AM 55.9°F 54.0°F 93% 30.22 in 10.0 miles Calm Calm - N/A   Overcast
9:37 AM 57.2°F 55.4°F 94% 30.23 in 9.0 miles WSW 3.5 mph - N/A   Overcast
9:53 AM 57.0°F 54.0°F 89% 30.23 in 10.0 miles SW 3.5 mph - N/A   Overcast
10:53 AM 57.9°F 55.0°F 90% 30.24 in 9.0 miles SW 4.6 mph - N/A   Overcast
11:53 AM 60.1°F 55.9°F 86% 30.24 in 10.0 miles SW 4.6 mph - N/A   Overcast
12:51 PM 60.8°F 55.4°F 82% 30.24 in 9.0 miles SSW 8.1 mph - N/A   Overcast
12:53 PM 61.0°F 55.9°F 83% 30.24 in 9.0 miles SSW 5.8 mph - N/A   Overcast
1:53 PM 61.0°F 57.0°F 87% 30.25 in 3.0 miles SSW 9.2 mph - N/A   Overcast
2:00 PM 60.8°F 57.2°F 88% 30.26 in 3.0 miles SSW 8.1 mph - N/A   Overcast
2:06 PM 60.8°F 57.2°F 88% 30.24 in 1.8 miles SSW 10.4 mph - N/A   Overcast
2:34 PM 60.8°F 57.2°F 88% 30.25 in 4.0 miles SSW 8.1 mph - 0.01 in   Overcast
2:53 PM 62.1°F 57.9°F 86% 30.25 in 10.0 miles SSW 9.2 mph - 0.01 in   Overcast
3:53 PM 63.0°F 55.9°F 78% 30.22 in 10.0 miles South 13.8 mph - N/A   Overcast
4:00 PM 62.6°F 55.4°F 77% 30.22 in 10.0 miles South 15.0 mph - N/A   Scattered Clouds
4:53 PM 63.0°F 55.0°F 75% 30.23 in 10.0 miles SSW 12.7 mph - N/A   Overcast
5:53 PM 61.0°F 57.0°F 87% 30.25 in 6.0 miles SW 5.8 mph - 0.02 in   Overcast
6:53 PM 61.0°F 57.0°F 87% 30.24 in 10.0 miles SSE 5.8 mph - 0.00 in Rain Light Rain
7:00 PM 60.8°F 57.2°F 88% 30.24 in 10.0 miles SSE 4.6 mph - 0.00 in Rain Light Rain
7:53 PM 62.1°F 55.9°F 80% 30.25 in 2.5 miles WSW 6.9 mph - 0.02 in Rain Rain
8:11 PM 60.8°F 57.2°F 88% 30.25 in 1.5 miles West 6.9 mph - 0.06 in Rain Rain
8:22 PM 59.0°F 57.2°F 94% 30.25 in 2.0 miles WSW 8.1 mph - 0.07 in Rain Light Rain
8:33 PM 59.0°F 57.2°F 94% 30.25 in 1.5 miles WSW 6.9 mph - 0.09 in Rain Light Rain
8:53 PM 59.0°F 57.9°F 96% 30.26 in 1.8 miles SW 9.2 mph - 0.12 in Rain Light Rain
9:00 PM 59.0°F 57.2°F 94% 30.26 in 2.0 miles SW 6.9 mph - 0.00 in Rain Light Rain
9:15 PM 59.0°F 57.2°F 94% 30.26 in 3.0 miles SW 8.1 mph - 0.01 in Rain Light Rain
9:23 PM 59.0°F 57.2°F 94% 30.26 in 2.5 miles SSW 6.9 mph - 0.02 in Rain Light Rain
9:32 PM 60.8°F 57.2°F 88% 30.26 in 5.0 miles SSW 6.9 mph - 0.02 in Rain Light Rain
9:53 PM 60.1°F 57.9°F 93% 30.26 in 5.0 miles SW 6.9 mph - 0.03 in Rain Light Rain
10:37 PM 60.8°F 57.2°F 88% 30.27 in 4.0 miles SW 9.2 mph - 0.02 in Rain Light Rain
10:49 PM 60.8°F 57.2°F 88% 30.27 in 7.0 miles SW 8.1 mph - 0.02 in Rain Light Rain
10:53 PM 60.1°F 57.0°F 90% 30.27 in 7.0 miles SW 6.9 mph - 0.02 in Rain Light Rain
Moon Phase
Nov. 04 Nov. 06 Nov. 13 Nov. 20 Nov. 28
Sunrise:06:58 AM (PST) Moon Rise:09:28 PM (PST)11/4
Sunset:04:48 PM (PST) Moon Set:11:50 AM (PST)11/4

Copyright © 2014 The Weather Underground, Inc.